Regional Weather Roundup
Issued by NWS

Home | Current Version | Previous Version | Text Only | Print | Product List | Glossary On
Versions: 1 2 3 4 5 6 7 8 9 10 11 12 13 14 15 16 17 18 19 20 21 22 23 24 25 26 27
000
ASUS44 KBMX 051010
RWRAL

ALABAMA REGIONAL WEATHER ROUNDUP
NATIONAL WEATHER SERVICE BIRMINGHAM AL
500 AM CDT THU MAY 05 2016

NOTE: "FAIR" INDICATES FEW OR NO CLOUDS BELOW 12,000 FEET
WITH NO SIGNIFICANT WEATHER AND/OR OBSTRUCTIONS TO VISIBILITY.

THE REMARK "TC" DENOTES TEMPERATURE IN DEGREES CELSIUS.

ALZ001>011-014-016>018-020-051100-
NORTH ALABAMA

CITY           SKY/WX    TMP DP  RH WIND       PRES   REMARKS
MUSCLE SHOALS  CLEAR     46  42  86 W3        29.85F
HUNTSVILLE     CLEAR     47  43  86 NW5       29.83S
DECATUR        CLEAR     46  43  89 N3        29.84S
HALEYVILLE     FAIR      42  42 100 CALM      29.86F
GADSDEN        CLEAR     47  45  93 CALM      29.82S
$$

ALZ012-013-022-023-030>036-040>044-051100-
WEST CENTRAL ALABAMA

CITY           SKY/WX    TMP DP  RH WIND       PRES   REMARKS
TUSCALOOSA     CLEAR     50  49  96 CALM      29.87R
$$

ALZ015-024>027-033>036-040>044-051100-
CENTRAL ALABAMA

CITY           SKY/WX    TMP DP  RH WIND       PRES   REMARKS
BIRMINGHAM     CLEAR     50  47  89 CALM      29.86S
MONTGOMERY     CLEAR     56  52  86 NW6       29.83R
SHELBY CO ARPT CLEAR     51  47  86 CALM      29.84S
MAXWELL AFB    CLEAR     57  50  78 N13G18    29.82R
GREENVILLE     FAIR      56  51  84 N5        29.82R
$$

ALZ019-021-028-029-037-038-045>048-051100-
EAST CENTRAL ALABAMA

CITY           SKY/WX    TMP DP  RH WIND       PRES   REMARKS
ANNISTON       CLEAR     54  42  64 NW8       29.82R
ALEXANDER CITY CLEAR     52  52 100 CALM      29.82R
AUBURN         CLEAR     52  50  93 NW9       29.81R
$$

ALZ051>064-051100-
SOUTHWEST ALABAMA

CITY           SKY/WX    TMP DP  RH WIND       PRES   REMARKS
MOBILE         CLEAR     57  53  86 NW5       29.84R
BROOKLEY FIELD CLEAR     62  52  69 NW8       29.84R
EVERGREEN      CLEAR     54  52  93 CALM      29.83R
$$

ALZ049-050-065>069-051100-
SOUTHEAST ALABAMA

CITY           SKY/WX    TMP DP  RH WIND       PRES   REMARKS
DOTHAN         CLEAR     55  52  89 NW8       29.82S
OZARK          CLEAR     56  53  88 NW7       29.79R
TROY           CLEAR     55  53  93 CALM      29.82R
EUFAULA        FAIR      56  52  86 VRB5      29.78R
$$




USA.gov is the U.S. government's official web portal to all federal, state and local government web resources and services.